Location: Lango�lan
(48.1202°N, 3.2340°W)
Time: 01:59:41
(UTC+00:00)

Cosmos 1707 - Pass Details

Date: 23 October 2019
Orbit: 515 x 532 km, 82.5° (Epoch: 21 November)

Event Time Altitude Azimuth Distance (km) Brightness Sun altitude
Exits shadow 04:33:55 40° 348° (NNW) 795 3.5 -22.3°
Drops below altitude 10° 04:36:36 10° 4° (N) 1,793 5.6 -21.8°
Sets 04:38:47 0° 8° (N) 2,686 6.5 -21.5°
